Вернуться в каталог

IRIDIUM 135

АктивенСвязьPO
NORAD 43070·PAYLOAD·🇺🇸 United States

Запущен Dec 23, 2017 с Vandenberg Space Force Base

Loading…

Ближайшие Пролёты (ближайшие 24 часа)

TLE

СвежийSource: CelesTrak SupGP

Эпоха: Sep 14, 2026, 09:46 UTC

1 43070C 17083A   26257.40729167  .00002609  00000+0  93293-3 0  2573
2 43070  86.3914 284.7167 0002328  93.9946  18.6006 14.34213686    17

Отслеживайте IRIDIUM 135 в реальном времени с AllMySat

Download on the App Store